Location: Unspecified
(0.0000°N, 0.0000°E)
Time: 13:11:45
(UTC+00:00)

Vanguard 2 Rocket - All Passes

Search period start: 01 April 2015 00:00
Search period end: 11 April 2015 00:00
Orbit: 555 x 3332 km, 32.9° (Epoch: 01 April)

Date Brightness Start Highest point End Pass type
(mag) Time Alt. Az. Time Alt. Az. Time Alt. Az.
01 Apr - 00:40:34 10° WSW 00:57:23 40° NW 01:08:06 10° NNE night (unlit)
01 Apr - 09:59:31 10° NW 10:03:18 42° NE 10:08:16 10° ESE daylight
01 Apr - 12:12:34 10° W 12:16:59 26° SSW 12:23:23 10° SSE daylight
01 Apr - 14:31:33 10° SSW 14:34:18 11° S 14:37:16 10° S daylight
01 Apr - 16:49:01 10° SSW 16:55:10 14° SSE 17:03:08 10° SE daylight
01 Apr - 19:02:45 10° SSW 19:17:22 31° SSE 19:34:20 10° E visible
01 Apr - 21:18:07 10° SW 21:38:16 68° SSE 21:55:24 10° ENE visible
01 Apr - 23:37:27 10° WSW 23:56:56 56° NW 00:09:58 10° NE visible
02 Apr - 02:04:58 10° WNW 02:14:08 17° NNW 02:20:20 10° N visible
02 Apr - 09:02:17 10° N 09:05:04 18° NE 09:08:09 10° E daylight
02 Apr - 11:13:53 10° W 11:18:00 39° SSW 11:24:01 10° SE daylight
02 Apr - 13:31:15 10° SSW 13:33:59 12° S 13:36:57 10° S daylight
02 Apr - 15:51:48 10° S 15:53:31 10° S 15:55:41 10° SSE daylight
02 Apr - 18:03:43 10° SSW 18:15:16 23° SSE 18:30:06 10° ESE visible
02 Apr - 20:17:55 10° SW 20:36:27 53° SSE 20:54:45 10° ENE visible
02 Apr - 22:35:19 10° WSW 22:56:00 74° NW 23:11:15 10° NE visible
03 Apr - 00:59:20 10° W 01:13:48 28° NW 01:23:22 10° NNE visible
03 Apr - 10:15:32 10° WNW 10:19:29 73° SW 10:24:48 10° SE daylight
03 Apr - 12:31:08 10° SW 12:34:11 14° SSW 12:37:45 10° SSE daylight
03 Apr - 17:05:19 10° SSW 17:13:22 17° SSE 17:24:14 10° SE daylight
03 Apr - 19:18:20 10° SSW 19:34:33 41° SSE 19:53:00 10° E visible
03 Apr - 21:34:06 10° SW 21:54:38 88° SE 22:11:53 10° NE visible
03 Apr - 23:55:11 10° W 00:13:11 40° NW 00:25:30 10° NNE visible
04 Apr - 02:27:36 10° NW 02:31:20 11° NNW 02:33:45 10° NNW visible
04 Apr - 09:17:29 10° NW 09:21:17 48° NE 09:25:35 10° ESE daylight
04 Apr - 11:31:32 10° WSW 11:34:51 18° SSW 11:39:00 10° SSE daylight
04 Apr - 16:08:13 10° S 16:11:46 11° SSE 16:16:34 10° SE daylight
04 Apr - 18:19:17 10° SSW 18:32:44 31° SSE 18:49:51 10° E visible
04 Apr - 20:33:39 10° SW 20:52:58 71° SE 21:11:45 10° ENE visible
04 Apr - 22:52:17 10° WSW 23:12:11 55° NW 23:27:01 10° NE visible
05 Apr - 01:19:29 10° WNW 01:30:40 19° NNW 01:38:22 10° N visible
05 Apr - 08:19:45 10° NNW 08:22:59 22° NNE 08:26:10 10° E daylight
05 Apr - 10:32:24 10° W 10:35:58 28° SSW 10:40:26 10° SSE daylight
05 Apr - 17:20:52 10° SSW 17:31:06 22° SSE 17:45:07 10° ESE daylight
05 Apr - 19:33:54 10° SW 19:51:14 56° SE 20:10:42 10° ENE visible
05 Apr - 21:50:30 10° WSW 22:10:51 71° NW 22:27:55 10° NE visible
06 Apr - 00:14:00 10° W 00:29:47 29° NNW 00:40:50 10° NNE visible
06 Apr - 07:22:36 10° N 07:24:16 12° NNE 07:25:58 10° NE daylight
06 Apr - 09:33:40 10° WNW 09:37:31 56° SW 09:41:54 10° SE daylight
06 Apr - 16:23:19 10° S 16:29:42 15° SSE 16:38:38 10° SE daylight
06 Apr - 18:34:46 10° SSW 18:49:37 42° SSE 19:08:29 10° E visible
06 Apr - 20:49:40 10° SW 21:09:14 89° NW 21:28:09 10° NE visible
06 Apr - 23:10:03 10° W 23:28:37 40° NNW 23:42:32 10° NNE visible
07 Apr - 01:41:07 10° NW 01:48:05 13° NNW 01:53:02 10° N visible
07 Apr - 08:35:10 10° NW 08:39:19 61° NE 08:43:17 10° ESE daylight
07 Apr - 10:50:51 10° SW 10:52:45 12° SSW 10:54:40 10° S daylight
07 Apr - 17:36:14 10° SSW 17:48:15 31° SSE 18:04:55 10° E daylight
07 Apr - 19:49:39 10° SW 20:07:34 74° SE 20:27:36 10° ENE visible
07 Apr - 22:07:30 10° WSW 22:27:09 54° NW 22:43:38 10° NE visible
08 Apr - 00:34:03 10° WNW 00:46:54 21° NNW 00:56:04 10° NNE visible
08 Apr - 07:36:48 10° NNW 07:40:57 29° NNE 07:44:26 10° E daylight
08 Apr - 09:50:50 10° W 09:53:55 21° SSW 09:57:15 10° SSE daylight
08 Apr - 16:38:21 10° SSW 16:47:09 21° SSE 16:59:47 10° ESE daylight
08 Apr - 18:50:19 10° SW 19:06:04 57° SE 19:26:06 10° ENE visible
08 Apr - 21:06:07 10° WSW 21:25:29 69° NW 21:44:06 10° NE visible
08 Apr - 23:28:52 10° W 23:45:27 29° NNW 23:57:56 10° NNE visible
09 Apr - 06:38:29 10° NNW 06:42:09 17° NNE 06:45:12 10° ENE daylight
09 Apr - 08:51:31 10° WNW 08:55:32 44° SW 08:59:21 10° SE daylight
09 Apr - 15:41:48 10° S 15:46:17 13° SSE 15:52:43 10° SE daylight
09 Apr - 17:51:35 10° SSW 18:04:52 43° SE 18:23:30 10° ENE visible
09 Apr - 20:05:42 10° SW 20:23:47 86° NW 20:43:54 10° NE visible
09 Apr - 22:25:19 10° W 22:43:46 40° NNW 22:59:09 10° NNE visible
10 Apr - 00:55:13 10° NW 01:04:34 15° NNW 01:11:24 10° N visible
10 Apr - 05:40:10 10° N 05:42:55 13° NNE 05:45:23 10° NE visible
10 Apr - 07:52:27 10° NW 07:57:19 79° NE 08:01:14 10° ESE daylight
10 Apr - 16:53:29 10° SSW 17:04:01 30° SE 17:19:37 10° E daylight
10 Apr - 19:06:05 10° SW 19:22:15 76° SE 19:42:55 10° ENE visible
10 Apr - 21:23:11 10° WSW 21:41:56 52° NNW 21:59:46 10° NE visible
